EHI
10 11 12 16 28 48 66 77 82 84 80 70 59 48 37 29 20 9 2 0 0 0 0 0 0 0 1 2 3 2 1 0 1 0 0 0 1 3 2 1 0 0 0
17 15 16 20 31 48 64 75 82 84 80 71 62 54 45 35 24 12 3 0 0 0 0 0 0 0 1 2 2 1 0 1 1 1 0 0 1 2 2 1 0 0 0
26 20 18 23 33 47 59 69 76 79 76 71 65 60 54 43 30 17 6 1 1 0 0 0 1 1 0 1 1 0 0 1 1 1 1 0 1 1 1 0 0 0 0
34 23 18 24 35 47 56 62 67 69 68 66 62 59 54 46 35 24 12 5 3 1 0 0 1 1 0 0 0 0 0 0 1 1 1 0 0 0 1 1 1 0 0
38 28 23 29 39 50 56 57 57 58 60 61 59 56 51 43 35 28 19 11 6 4 2 2 2 1 0 0 1 0 0 0 0 1 1 0 0 1 2 2 1 0 0
41 34 31 38 46 53 55 51 47 48 52 55 54 51 46 40 33 27 22 15 11 8 6 4 3 2 1 1 1 0 0 0 0 0 0 0 0 2 3 2 1 0 0
46 41 40 46 51 53 50 46 41 40 45 46 43 40 38 33 28 24 21 17 13 9 7 5 4 4 3 3 1 1 0 0 0 0 0 0 1 1 2 2 1 0 0
53 51 50 51 53 51 48 44 40 38 39 37 31 28 27 25 22 19 17 15 12 9 6 5 5 6 6 6 5 3 1 0 0 1 0 1 1 1 1 1 0 0 0
53 56 56 56 57 54 49 44 39 36 35 32 26 22 19 18 16 14 13 13 12 10 7 6 6 7 8 9 8 5 2 0 0 0 0 1 2 2 2 1 0 0 0
47 51 54 55 55 53 48 44 38 32 30 27 23 18 16 14 13 11 11 11 12 10 8 6 7 9 10 10 8 5 2 0 0 0 0 0 1 4 5 3 1 0 0
40 41 43 44 46 46 45 41 35 27 23 21 17 14 13 11 9 8 7 8 9 7 6 5 6 9 10 7 5 3 1 0 1 0 0 0 1 4 6 5 2 1 0
32 31 32 34 37 41 42 38 30 23 17 15 12 8 8 7 5 4 4 5 5 4 3 3 4 6 6 3 2 2 1 0 0 0 0 0 1 4 5 5 3 1 0
27 27 26 28 31 35 36 33 25 17 12 10 6 4 4 4 3 1 2 3 3 3 3 2 3 3 2 1 1 1 0 0 0 0 0 0 2 4 4 4 4 3 1
22 23 21 20 22 24 27 26 19 12 9 7 5 3 4 3 2 1 1 1 1 2 2 2 2 2 1 1 0 0 0 0 0 0 1 1 2 4 4 4 4 4 3
12 14 13 12 11 14 17 17 13 10 8 6 5 4 4 4 3 2 2 1 1 2 2 2 2 2 2 2 1 1 0 0 0 0 1 1 1 2 4 5 4 4 5
4 5 6 6 7 9 11 11 9 8 8 6 5 5 4 4 4 3 2 1 2 3 2 1 1 1 1 2 2 1 0 0 0 0 1 1 0 1 4 6 5 5 5
3 3 4 4 6 8 8 7 6 6 6 5 5 4 4 4 4 3 2 2 3 3 3 2 1 0 0 1 1 1 0 0 0 0 0 0 0 1 5 6 6 6 5
3 2 2 2 3 4 4 3 3 3 3 3 4 4 4 4 3 2 2 2 4 4 3 3 2 1 0 0 0 0 0 0 0 0 0 0 0 2 5 6 5 6 5
1 1 1 1 0 1 1 1 1 2 1 1 2 2 2 3 2 1 2 2 3 3 3 3 3 1 0 0 0 0 0 0 0 0 0 0 0 1 4 4 3 3 3
0 0 0 0 0 0 0 0 1 2 1 0 1 1 1 1 1 1 1 1 1 1 2 3 2 1 0 0 1 0 0 0 0 0 0 0 0 1 2 1 1 0 1
0 0 0 0 0 0 0 0 1 2 1 0 0 0 0 0 0 0 0 0 0 0 0 1 1 1 0 0 0 0 0 0 0 0 0 0 0 0 0 0 0 0 0
0 0 0 0 0 0 0 0 0 1 1 0 0 0 0 0 0 0 0 0 0 0 0 0 0 0 0 0 0 0 0 0 0 0 0 0 0 0 0 0 0 1 1
0 0 0 0 0 0 0 0 0 0 0 0 0 0 0 0 0 0 0 0 0 0 0 0 0 0 1 1 0 0 0 0 0 0 0 0 0 0 0 0 0 0 0
0 0 0 0 0 0 0 0 0 0 0 0 0 0 0 0 0 0 0 0 0 0 0 0 0 0 1 2 1 0 0 0 0 0 0 0 0 0 0 0 0 0 0
0 0 0 0 0 0 0 0 0 0 0 0 0 0 0 0 0 0 0 0 0 0 0 0 0 0 1 2 2 1 1 0 0 0 0 0 0 0 0 0 0 0 0
0 0 0 0 0 0 0 0 0 0 0 0 0 0 0 0 0 0 0 0 0 0 0 0 0 0 0 1 1 2 2 1 0 0 0 0 0 0 0 0 0 0 0
Wind_Speed
7 10 16 16 15 15 16 17 18 18 19 19 19 19 19 18 17 16 15 14 13 12 12 13 13 14 14 15 15 16 16 15 15 15 15 15 15 14 14 15 14 11 15
11 12 18 17 17 17 17 18 18 18 18 19 19 19 18 18 17 16 15 14 13 12 12 13 13 13 14 14 15 15 15 14 14 14 14 14 14 14 14 14 12 9 14
14 12 15 18 18 18 18 18 18 18 18 18 18 18 17 16 16 15 14 13 13 12 12 12 13 13 13 13 13 14 14 13 12 12 12 9 10 13 13 13 13 13 13
13 10 12 17 18 18 19 18 18 18 18 18 17 17 17 16 15 14 14 13 12 12 12 12 12 13 13 13 12 12 12 12 12 12 7 7 7 12 13 13 13 12 12
11 9 12 17 17 18 18 18 18 18 17 17 17 16 15 15 14 13 13 13 12 11 12 12 12 12 12 12 11 11 10 11 11 9 5 5 5 11 12 13 13 12 11
10 8 11 16 16 17 17 17 17 17 16 16 16 15 14 13 12 12 12 12 11 11 11 11 11 11 10 10 10 9 9 9 9 6 5 5 5 10 12 12 12 12 11
9 7 9 14 14 15 16 16 16 16 15 14 14 14 13 12 11 10 11 11 10 10 10 10 10 9 9 9 8 7 7 9 7 6 6 5 6 10 11 12 12 11 11
9 8 7 13 14 14 15 15 14 14 13 13 12 12 11 11 10 10 10 10 9 9 9 9 8 8 7 7 6 5 6 7 7 6 6 6 7 10 11 11 11 11 10
8 8 6 6 8 11 12 13 13 12 12 11 11 11 11 10 10 9 9 9 8 8 8 8 8 7 6 5 4 4 4 6 5 4 6 5 8 11 12 11 11 11 10
7 7 5 5 4 5 6 11 12 11 11 11 11 11 10 9 9 9 7 7 8 8 7 7 6 6 5 4 3 3 3 4 3 4 3 6 11 12 12 12 11 11 10
7 6 5 5 5 3 4 6 8 9 9 9 8 10 8 4 3 4 6 7 7 7 7 6 5 5 4 3 2 2 2 1 2 2 3 8 12 13 13 12 12 11 11
6 5 4 4 4 3 3 3 3 3 3 3 3 3 3 3 2 3 4 6 6 6 6 6 5 4 3 1 1 1 1 1 2 2 4 9 11 13 13 13 12 12 12
5 5 4 4 3 3 2 2 2 1 2 2 3 3 2 2 2 1 1 2 2 3 2 2 2 1 2 1 1 1 1 2 1 2 3 8 10 13 13 13 13 13 12
5 5 4 4 3 2 2 2 2 1 1 1 2 3 2 2 2 2 1 1 1 1 2 2 1 2 2 2 2 2 2 2 2 2 3 8 9 12 13 14 14 13 13
4 5 4 4 3 2 1 1 1 1 2 1 1 2 3 2 2 2 1 2 2 2 2 2 2 3 2 2 3 3 3 3 3 3 2 6 8 10 12 14 14 14 13
4 5 4 4 3 3 2 1 1 1 1 1 1 2 3 2 2 2 2 2 2 2 2 3 3 2 2 2 2 2 3 3 3 3 2 3 6 8 11 12 13 14 13
5 5 5 4 4 4 2 1 1 1 1 1 0 1 2 2 2 3 2 2 2 2 2 2 2 1 2 2 2 2 2 2 2 2 2 2 3 5 8 9 10 12 12
5 5 5 5 5 4 3 2 2 2 2 1 0 0 1 1 2 2 2 2 2 2 2 2 2 2 2 2 1 1 1 1 2 2 2 2 2 2 4 7 8 10 11
6 5 5 6 6 5 4 2 2 1 1 1 1 1 0 1 1 1 2 2 2 2 2 2 2 2 2 2 2 1 1 1 2 2 2 2 2 2 2 4 7 8 9
6 6 6 7 7 5 3 2 1 2 2 2 2 2 2 1 1 0 1 1 1 1 1 2 2 2 2 2 1 0 1 1 1 2 2 2 2 2 2 2 3 4 8
6 6 7 6 6 5 3 2 1 2 2 2 2 3 4 3 3 2 1 1 0 1 2 2 2 2 1 2 1 0 1 0 1 1 1 1 1 1 1 2 2 2 3
6 6 6 6 6 5 3 1 1 1 2 2 3 4 5 4 4 3 2 1 1 1 1 1 1 1 2 3 2 1 1 1 1 1 1 1 1 1 1 2 2 3 3
6 6 5 6 6 6 5 3 2 2 2 3 4 4 5 5 4 3 3 2 1 0 1 1 2 2 2 3 2 3 3 3 1 0 1 1 1 1 1 1 1 2 3
5 5 5 6 7 7 6 5 5 4 3 3 3 3 4 5 5 4 4 3 2 1 1 2 1 2 2 3 2 2 2 2 2 1 0 1 1 0 1 1 1 1 2
5 5 5 6 7 7 7 7 6 5 3 3 3 4 4 4 5 5 4 3 3 2 2 2 2 2 2 3 3 2 2 2 2 3 2 2 1 1 1 1 1 1 2
5 5 5 7 7 7 7 7 7 7 6 5 5 4 4 4 4 6 6 4 3 2 2 2 2 2 2 3 2 2 2 3 3 3 3 3 2 1 1 1 1 1 2
Wind_Direction
142 145 140 137 131 122 116 112 111 113 117 121 124 126 128 129 129 129 128 125 120 116 112 108 107 107 109 112 115 117 119 120 122 123 123 120 118 117 116 114 112 112 114
139 143 140 138 133 126 120 116 114 115 118 121 123 126 128 129 129 129 128 125 122 119 116 113 112 112 114 116 118 121 122 124 126 129 128 123 121 119 117 116 116 117 117
134 139 140 140 136 130 125 121 119 119 120 121 123 126 128 130 130 130 129 127 125 122 120 119 118 118 119 120 123 125 126 127 128 127 120 118 124 126 124 124 123 120 120
130 132 138 140 137 133 129 126 124 124 124 124 125 128 130 131 131 131 130 128 127 125 125 124 123 124 125 126 127 129 130 128 125 118 110 123 130 133 131 128 127 126 124
122 126 140 139 137 134 133 131 131 130 129 129 129 131 132 132 132 132 132 130 129 127 127 127 128 128 129 130 131 133 132 131 131 118 111 115 125 140 138 136 134 132 131
116 122 140 139 138 137 136 136 136 135 134 133 133 134 134 133 133 133 134 133 132 130 129 129 130 132 132 133 134 136 137 141 132 128 127 130 138 149 148 146 143 139 139
116 119 135 137 137 139 139 140 140 139 138 137 137 137 136 135 134 135 137 137 136 135 133 133 133 134 134 136 137 138 144 146 136 144 147 151 161 159 157 153 149 148 147
117 114 126 138 141 144 145 145 145 144 142 141 142 141 140 139 139 141 142 142 142 141 141 140 138 137 135 135 135 137 144 149 146 157 163 167 177 170 166 161 157 156 153
107 110 113 130 139 145 148 149 150 148 147 147 146 147 149 149 149 151 151 151 151 151 151 151 149 146 142 140 137 134 143 150 145 164 176 177 186 179 172 169 167 165 161
98 96 97 102 113 131 148 156 156 155 156 157 157 159 159 160 161 162 159 162 165 165 166 165 160 156 154 153 150 143 143 135 150 165 172 187 191 186 180 177 176 173 170
96 84 84 85 87 108 136 153 156 160 164 165 166 169 164 156 159 166 174 178 181 180 180 179 176 170 165 160 159 151 124 127 165 173 181 200 197 193 188 185 184 182 179
98 92 84 89 95 102 123 119 121 141 150 153 153 162 150 148 166 176 191 196 197 196 194 194 197 190 168 143 171 153 131 174 192 197 204 209 204 198 193 190 190 190 188
104 94 88 91 93 90 94 115 118 116 126 144 159 158 149 148 157 169 171 216 217 209 199 200 197 177 163 168 171 186 200 197 210 219 221 219 210 203 199 196 195 195 193
97 87 73 80 86 87 93 112 123 130 140 162 171 162 156 162 177 191 194 205 204 197 191 184 181 194 199 202 201 213 222 217 217 219 229 226 218 209 206 203 200 199 198
85 63 56 67 70 69 80 105 123 142 161 168 169 178 177 180 195 202 212 215 213 204 197 196 198 203 213 225 223 218 219 223 225 221 230 233 227 217 212 208 204 204 203
52 42 40 56 51 53 57 69 90 116 148 151 172 187 187 191 199 202 212 217 219 210 205 208 206 203 214 217 231 221 223 220 223 220 226 242 240 226 215 209 207 207 203
41 32 27 43 45 46 45 60 72 78 95 104 154 173 176 185 196 199 208 219 221 208 204 213 218 197 221 219 226 223 219 228 228 223 226 232 243 230 212 204 205 204 202
40 38 27 28 36 36 32 38 54 69 79 81 93 119 177 199 204 204 214 226 222 201 195 205 203 203 214 206 209 228 233 242 249 234 228 230 229 233 210 202 202 200 203
45 41 34 29 27 26 26 31 41 69 77 62 48 35 287 220 214 205 227 235 217 203 207 218 197 190 200 204 209 222 244 256 262 257 242 228 220 214 199 200 200 199 200
50 43 37 31 22 13 20 19 25 44 47 51 41 26 21 16 12 183 228 261 219 202 212 210 202 188 181 177 200 255 267 273 275 269 257 237 211 199 178 180 187 195 194
44 40 36 33 19 15 18 10 12 24 26 39 42 35 31 24 18 27 2 1 335 234 236 212 194 184 169 143 134 284 307 269 277 287 284 253 211 186 167 166 169 184 184
46 37 36 32 24 18 14 3 4 58 55 50 37 35 28 25 15 13 18 15 7 279 249 220 188 176 183 173 162 159 252 283 259 248 250 246 236 186 176 170 179 177 172
51 40 39 30 29 22 14 22 33 53 52 37 27 21 18 16 15 11 16 18 6 324 259 243 217 202 205 206 192 173 186 216 214 229 213 223 242 196 177 145 176 171 162
58 46 40 40 37 28 24 36 44 46 46 33 24 17 13 16 12 11 14 12 7 350 311 285 251 230 215 219 218 216 202 172 175 191 207 197 178 169 136 109 115 136 149
59 53 45 45 41 33 34 38 48 51 45 34 29 26 15 15 15 11 13 9 3 349 333 317 298 256 235 230 219 202 195 202 197 185 197 177 135 64 71 87 96 95 115
50 47 45 47 39 31 35 40 46 48 43 40 28 17 7 3 6 9 8 8 1 348 335 323 308 278 257 251 240 218 199 192 193 187 186 174 156 107 67 67 87 93 92